Miscellaneous Local Product
Issued by NWS North Platte, NE

Home | Current Version | Previous Version | Text Only | Print | Product List | Glossary On
Versions: 1 2 3 4 5 6 7 8 9 10 11 12 13 14 15 16 17 18 19 20 21 22 23 24 25 26 27 28 29 30 31 32 33 34 35 36 37 38 39 40 41 42 43 44 45 46 47 48 49 50
000
AXUS43 KLBF 290010
MISLBF


WESTERN AND NORTH CENTRAL NEBRASKA HOURLY WEATHER ROUNDUP
NATIONAL WEATHER SERVICE NORTH PLATTE NE
700 PM CDT MON JUL 28 2014

***STATIONS NOT REPORTING VARIABLES SUCH AS SKY/WEATHER OR
PRESSURE ARE PROVIDED BY THE NEBRASKA DEPARTMENT OF
ROADS...RAWS...AND APRS NETWORKS...AND ARE NOT UNDER
NATIONAL WEATHER SERVICE QUALITY CONTROL***

...OBSERVATIONS IN AND NEAR THE EASTERN PANHANDLE OF NEBRASKA...

CITY           SKY/WX    TMP DP  RH WIND       PRES   REMARKS
PINE RIDGE     SUNNY     81  56  42 E10       30.21F
CHADRON        SUNNY     87  55  33 E13       30.17F
ALLIANCE       MOSUNNY   87  53  31 S10       30.21F
SIDNEY         CLOUDY    82  56  40 S13G24    30.24S
WHITECLAY        N/A     83  54  37 E6          N/A
RUSHVILLE        N/A     87  50  27 E14         N/A
GORDON           N/A     87  56  34 E12         N/A
LISCO            N/A     89  50  25 E7          N/A
$$

...OBSERVATIONS IN NORTH CENTRAL NEBRASKA...

CITY           SKY/WX    TMP DP  RH WIND       PRES   REMARKS
VALENTINE      SUNNY     81  51  35 NE10      30.23F
THEDFORD       MOSUNNY   80  56  43 E5        30.24F
AINSWORTH      SUNNY     77  51  39 E7        30.24S
O`NEILL        MOSUNNY   77  48  36 NE3       30.24S
ORD            SUNNY     78  54  43 N6        30.22F
BROKEN BOW     PTSUNNY   78  58  49 E3        30.23F
BROWNLEE         N/A     86  51  29 E3          N/A
SPRINGVIEW       N/A     80  53  39 CALM        N/A
DUNNING          N/A     80  55  41 CALM        N/A
ROSE             N/A     82  59  44 N6          N/A
NEWPORT          N/A     76  53  44 E7          N/A
SARGENT          N/A     79  56  45 E3          N/A
COMSTOCK         N/A     84  61  45 E5          N/A
CHAMBERS         N/A     85  55  35 CALM        N/A
EWING            N/A     75  59  58 CALM        N/A
$$

...OBSERVATIONS IN SOUTHWEST NEBRASKA AND FAR NORTHEAST COLORADO...

CITY           SKY/WX    TMP DP  RH WIND       PRES   REMARKS
WRAY             N/A     86  51  29 S10       30.21F
HOLYOKE        MOCLDY    84  55  37 SE7       30.21S
IMPERIAL       MOSUNNY   87  54  32 E9        30.19F
OGALLALA       SUNNY     84  58  41 SE9       30.20S
NORTH PLATTE   CLOUDY    80  59  48 E13       30.21F
MCCOOK         MOSUNNY   85  59  41 E16       30.17F
LEXINGTON      PTSUNNY   80  58  46 E7        30.21F
SUTHERLAND       N/A     86  65  49 E10         N/A
BRADY            N/A     78  59  51 NE3         N/A
$$

...SOME WEATHER OBSERVATIONS FROM AROUND THE REGION...

CITY           SKY/WX    TMP DP  RH WIND       PRES   REMARKS
DENVER         CLOUDY    76  57  51 S18       30.27F
LARAMIE        MOSUNNY   78  44  29 SE16      30.36F
CHEYENNE       MOSUNNY   79  52  38 E14       30.31F
SCOTTSBLUFF    SUNNY     88  58  36 E13       30.19F
RAPID CITY     PTSUNNY   78  54  43 SE8       30.24F
PIERRE         SUNNY     79  52  38 NE7       30.21F
WINNER         FAIR      81  48  31 NE7       30.22F
SIOUX FALLS    MOSUNNY   72  54  53 N10       30.21F
OMAHA          MOSUNNY   78  54  43 NW9       30.17F
GRAND ISLAND   SUNNY     76  57  51 E8        30.23F
KANSAS CITY    MOSUNNY   74  60  61 N7        30.16F
WICHITA        MOSUNNY   86  57  37 N8        30.15F
HAYS           SUNNY     86  57  37 E8        30.17F
LIBERAL        PTSUNNY   79  55  44 SW9       30.25F
GOODLAND       MOSUNNY   80  51  36 S16       30.24F
$$



USA.gov is the U.S. government's official web portal to all federal, state and local government web resources and services.